DMSP 5D-2 F13 DEB, 40490

Orbit data source: Space-Track

DMSP 5D-2 F13 DEB, 40490 is space debris in SSO originally from a launch on Fri, 24 Mar 1995 UTC launched from the Air Force Western Test Range (AFWTR). Debris objects in space refer to the collection of defunct objects orbiting the Earth. Examples of debris include non-operational satellites, rocket bodies, and fragments generated from explosions, collisions, or faulty payload assembly.

Loading next visibility...
Identifier
40490, 1995-015CD
Orbit
SSO
Country
Flag of USUS
Related business
Manufacturer
Unknown
Mission
Spacecraft
Bus & Motor
Unknown
Mass
Unknown
Launch date (UTC)
1995-03-24 (31 years ago)
Launch vehicle
Unknown
Launch site
Air Force Western Test Range (AFWTR)
Object type
Payload
Rocket body
Debris
Shape & HBR
Unknown shape, 0.1 m
Radar Cross Section
Small (<0.1 m²)

Expand to show TLE details & history
Last TLE update: 2 days ago

TLE from 2 days ago
0 DMSP 5D-2 F13 DEB
1 40490U 95015CD  26117.14419824  .00002091  00000-0  15303-2 0  9993
2 40490  98.7697 256.0871 0153338 313.8986  44.9596 13.91554611561538
Epoch: 2026-04-27T03:27Z
TLE epoch observation values (Epoch: 2026-04-27T03:27:38.727Z)
Latitude
-0.00011°
Longitude
-10.96233°
Altitude
847.697 km
Speed
7.469 km/s
True Right ascension
17h 04m 20s
True Declination
0° 00' 00"
Sunlit
Object was in full shadow at epoch
Visualization orbit readout
Latitude
Unknown
Longitude
Unknown
Altitude
Unknown
Speed
Unknown
Apparent Right ascension
Unknown
Apparent Declination
Unknown
Sunlit
N/A
Visualization observer readout
Local Sidereal Time
13:05:36
Azimuth
Unknown
Elevation
Unknown
Doppler factor
Unknown
Orbital elements
Apogee altitude
1,032.301 km
Perigee altitude
808.472 km
Semi-major axis
7,298.523 km
Eccentricity
0.01533
Inclination
98.7697°
RAAN
256.0871°
Arg. of periapsis
313.8986°
True anomaly
46.21816°
Mean anomaly
44.9596°
Eccentric anomaly
45.58717°
Mean motion
3.48089 °/min
Orbital period
103.42 mins
BSTAR
0.0015303
Loading maneuver chart data...
Computing Atmospheric mass density...

Documentation

Showing up to 5 results
|